�������l�o���
Date,Time,MP-1(��Sv/h),MP-2(��Sv/h),MP-3(��Sv/h),MP-4(��Sv/h),MP-5(��Sv/h),MP-6(��Sv/h),MP-7(��Sv/h),MP-8(��Sv/h),����,����(m/s),���J
2020/06/15,00:00,0.692,0.983,0.637,1.220,0.864,0.403,0.690,0.644,��,4.8,�L
2020/06/15,00:10,0.693,0.985,0.635,1.218,0.864,0.402,0.691,0.645,��쐼,4.8,��
2020/06/15,00:20,0.691,0.983,0.635,1.217,0.864,0.403,0.691,0.644,�쐼,5.1,��
2020/06/15,00:30,0.693,0.984,0.635,1.217,0.863,0.403,0.690,0.643,�쐼,6.7,��
2020/06/15,00:40,0.693,0.983,0.638,1.214,0.864,0.403,0.691,0.646,��쐼,7.6,��
2020/06/15,00:50,0.692,0.982,0.638,1.218,0.864,0.403,0.692,0.645,��쐼,6.5,��
2020/06/15,01:00,0.694,0.982,0.637,1.217,0.863,0.402,0.692,0.647,��쐼,5.3,��
2020/06/15,01:10,0.694,0.983,0.636,1.218,0.866,0.402,0.690,0.644,��쐼,6.0,��
2020/06/15,01:20,0.694,0.983,0.639,1.215,0.866,0.401,0.691,0.645,��쐼,6.0,��
2020/06/15,01:30,0.695,0.982,0.638,1.215,0.863,0.403,0.691,0.645,���쐼,5.3,��
2020/06/15,01:40,0.693,0.983,0.637,1.219,0.866,0.402,0.694,0.645,���쐼,2.3,��
2020/06/15,01:50,0.693,0.983,0.638,1.217,0.864,0.401,0.692,0.644,���쐼,3.9,��
2020/06/15,02:00,0.696,0.981,0.637,1.219,0.864,0.401,0.693,0.646,���k��,2.9,��
2020/06/15,02:10,0.693,0.982,0.636,1.222,0.863,0.404,0.693,0.646,�k�k��,4.6,��
2020/06/15,02:20,0.692,0.980,0.638,1.218,0.864,0.402,0.692,0.646,�k��,5.5,��
2020/06/15,02:30,0.694,0.980,0.637,1.218,0.866,0.401,0.692,0.646,�k��,5.5,��
2020/06/15,02:40,0.695,0.981,0.638,1.220,0.864,0.403,0.693,0.645,�k��,6.6,��
2020/06/15,02:50,0.693,0.982,0.638,1.219,0.865,0.400,0.694,0.647,��,6.0,��
2020/06/15,03:00,0.695,0.981,0.638,1.218,0.866,0.400,0.693,0.648,��,5.3,��
2020/06/15,03:10,0.694,0.983,0.639,1.221,0.868,0.400,0.693,0.647,���쐼,4.7,��
2020/06/15,03:20,0.692,0.981,0.638,1.219,0.864,0.399,0.692,0.645,��,3.6,��
2020/06/15,03:30,0.693,0.980,0.638,1.218,0.867,0.401,0.695,0.646,���k��,1.9,��
2020/06/15,03:40,0.692,0.981,0.638,1.221,0.863,0.401,0.693,0.646,�k��,3.0,��
2020/06/15,03:50,0.692,0.979,0.636,1.220,0.866,0.401,0.692,0.647,���k��,4.8,��
2020/06/15,04:00,0.694,0.982,0.637,1.219,0.868,0.400,0.692,0.646,���k��,5.6,��
2020/06/15,04:10,0.693,0.980,0.637,1.220,0.865,0.399,0.696,0.645,���k��,6.7,��
2020/06/15,04:20,0.693,0.980,0.639,1.220,0.867,0.400,0.693,0.646,��,7.9,��
2020/06/15,04:30,0.694,0.981,0.637,1.222,0.863,0.399,0.693,0.646,��,8.1,��
2020/06/15,04:40,0.692,0.981,0.638,1.221,0.866,0.401,0.693,0.645,���k��,9.0,��
2020/06/15,04:50,0.694,0.984,0.638,1.224,0.867,0.399,0.692,0.647,���k��,8.5,��
2020/06/15,05:00,0.694,0.981,0.637,1.220,0.865,0.399,0.693,0.647,�k��,7.0,��
2020/06/15,05:10,0.692,0.980,0.637,1.222,0.865,0.399,0.694,0.646,�k��,5.1,��
2020/06/15,05:20,0.693,0.983,0.638,1.223,0.864,0.398,0.692,0.647,���k��,5.0,��
2020/06/15,05:30,0.693,0.983,0.638,1.223,0.865,0.400,0.693,0.645,�k��,5.1,��
2020/06/15,05:40,0.693,0.981,0.638,1.223,0.867,0.399,0.693,0.646,�k��,3.9,��
2020/06/15,05:50,0.695,0.982,0.637,1.223,0.865,0.400,0.694,0.645,���k��,5.4,��
2020/06/15,06:00,0.695,0.982,0.638,1.223,0.865,0.399,0.693,0.647,��,6.3,��
2020/06/15,06:10,0.693,0.981,0.639,1.223,0.866,0.399,0.691,0.645,��,7.7,��
2020/06/15,06:20,0.694,0.984,0.638,1.224,0.868,0.398,0.694,0.647,��,8.2,��
2020/06/15,06:30,0.694,0.981,0.638,1.221,0.866,0.399,0.693,0.646,��,8.4,��
2020/06/15,06:40,0.695,0.984,0.638,1.223,0.867,0.398,0.694,0.645,��,8.0,��
2020/06/15,06:50,0.694,0.983,0.638,1.224,0.867,0.398,0.692,0.645,���k��,6.7,��
2020/06/15,07:00,0.694,0.985,0.638,1.225,0.867,0.397,0.693,0.646,���k��,6.1,��
2020/06/15,07:10,0.694,0.984,0.638,1.224,0.866,0.398,0.692,0.647,���k��,4.4,��
2020/06/15,07:20,0.694,0.983,0.637,1.223,0.866,0.398,0.694,0.646,���k��,2.9,��
2020/06/15,07:30,0.693,0.983,0.639,1.224,0.866,0.398,0.693,0.646,��,2.5,��
2020/06/15,07:40,0.696,0.982,0.640,1.223,0.868,0.397,0.692,0.645,�쐼,2.2,��
2020/06/15,07:50,0.695,0.983,0.640,1.225,0.867,0.397,0.694,0.645,��쐼,2.2,��
2020/06/15,08:00,0.695,0.985,0.639,1.223,0.867,0.398,0.694,0.644,�쐼,2.5,��
2020/06/15,08:10,0.697,0.984,0.638,1.224,0.869,0.399,0.695,0.645,�쐼,3.5,��
2020/06/15,08:20,0.698,0.985,0.639,1.226,0.866,0.400,0.693,0.645,���쐼,3.8,��
2020/06/15,08:30,0.699,0.982,0.639,1.224,0.871,0.401,0.694,0.646,���쐼,4.1,��
2020/06/15,08:40,0.698,0.982,0.639,1.226,0.868,0.398,0.694,0.646,��,4.1,��
2020/06/15,08:50,0.697,0.979,0.640,1.226,0.871,0.399,0.695,0.648,���쐼,3.6,��
2020/06/15,09:00,0.700,0.983,0.641,1.227,0.871,0.400,0.695,0.646,��,5.0,��
2020/06/15,09:10,0.701,0.982,0.640,1.228,0.870,0.401,0.696,0.647,���쐼,4.0,��
2020/06/15,09:20,0.698,0.980,0.640,1.228,0.870,0.400,0.695,0.646,��,4.7,��
2020/06/15,09:30,0.700,0.984,0.640,1.228,0.868,0.402,0.694,0.647,��,5.0,��
2020/06/15,09:40,0.701,0.984,0.641,1.227,0.873,0.401,0.694,0.646,��,7.0,��
2020/06/15,09:50,0.700,0.982,0.642,1.228,0.873,0.402,0.696,0.648,��,7.2,��
2020/06/15,10:00,0.702,0.982,0.642,1.228,0.874,0.401,0.697,0.648,��,7.8,��
2020/06/15,10:10,0.701,0.989,0.643,1.230,0.872,0.403,0.697,0.646,��,7.1,��
2020/06/15,10:20,0.703,0.984,0.645,1.229,0.874,0.404,0.697,0.648,��,6.5,��
2020/06/15,10:30,0.703,0.988,0.644,1.231,0.874,0.402,0.696,0.648,�k��,4.3,��
2020/06/15,10:40,0.703,0.988,0.643,1.231,0.877,0.404,0.696,0.648,�k��,4.9,��
2020/06/15,10:50,0.700,0.990,0.643,1.233,0.877,0.403,0.696,0.647,�k��,5.3,��
2020/06/15,11:00,0.701,0.989,0.643,1.233,0.876,0.404,0.696,0.649,�k��,5.8,��
2020/06/15,11:10,0.703,0.990,0.642,1.231,0.878,0.403,0.697,0.646,�k��,5.1,��
2020/06/15,11:20,0.703,0.991,0.644,1.232,0.880,0.403,0.694,0.648,�k��,4.9,��
2020/06/15,11:30,0.703,0.989,0.645,1.231,0.881,0.403,0.697,0.648,���k��,4.9,��
2020/06/15,11:40,0.704,0.994,0.645,1.231,0.879,0.404,0.698,0.649,���k��,3.7,��
2020/06/15,11:50,0.704,0.993,0.643,1.232,0.878,0.404,0.698,0.647,���k��,4.2,��
2020/06/15,12:00,0.703,0.997,0.644,1.233,0.879,0.403,0.696,0.649,��,2.9,��
2020/06/15,12:10,0.705,0.994,0.645,1.229,0.880,0.402,0.696,0.647,��,2.6,��
2020/06/15,12:20,0.706,0.999,0.646,1.232,0.880,0.403,0.697,0.649,��,3.0,��
2020/06/15,12:30,0.705,0.999,0.646,1.234,0.884,0.403,0.696,0.648,���쓌,2.6,��
2020/06/15,12:40,0.707,0.997,0.646,1.235,0.881,0.404,0.697,0.647,�쓌,2.6,��
2020/06/15,12:50,0.705,0.999,0.648,1.232,0.882,0.402,0.699,0.649,�쓌,3.3,��
2020/06/15,13:00,0.708,0.997,0.648,1.234,0.883,0.404,0.698,0.647,�쓌,3.8,��
2020/06/15,13:10,0.705,0.995,0.647,1.234,0.883,0.404,0.698,0.649,��쓌,2.3,��
2020/06/15,13:20,0.706,1.000,0.647,1.234,0.885,0.404,0.699,0.649,���쐼,1.5,��
2020/06/15,13:30,0.707,0.996,0.648,1.234,0.885,0.405,0.698,0.650,���쐼,6.4,��
2020/06/15,13:40,0.708,0.996,0.647,1.235,0.883,0.403,0.699,0.650,��,6.3,��
2020/06/15,13:50,0.709,0.995,0.648,1.234,0.886,0.404,0.699,0.649,��,6.4,��
2020/06/15,14:00,0.710,0.998,0.647,1.237,0.884,0.404,0.700,0.651,���쐼,8.6,��
2020/06/15,14:10,0.711,1.000,0.648,1.238,0.885,0.403,0.699,0.651,��,8.1,��
2020/06/15,14:20,0.709,1.002,0.648,1.237,0.885,0.403,0.699,0.648,��,7.3,��
2020/06/15,14:30,0.709,1.001,0.647,1.238,0.886,0.404,0.700,0.651,��,7.2,��
2020/06/15,14:40,0.711,1.003,0.647,1.236,0.889,0.403,0.700,0.651,��,8.3,��
2020/06/15,14:50,0.710,1.006,0.651,1.239,0.888,0.403,0.699,0.652,��,7.6,��
2020/06/15,15:00,0.712,1.003,0.649,1.240,0.888,0.403,0.700,0.651,��,7.5,��
2020/06/15,15:10,0.710,1.004,0.648,1.241,0.890,0.404,0.700,0.651,���쐼,6.7,��
2020/06/15,15:20,0.712,1.004,0.652,1.240,0.889,0.405,0.700,0.652,���쐼,6.7,��
2020/06/15,15:30,0.712,1.006,0.651,1.240,0.891,0.405,0.699,0.650,��,6.6,��
2020/06/15,15:40,0.711,1.008,0.652,1.243,0.892,0.403,0.701,0.650,��,6.9,��
2020/06/15,15:50,0.712,1.008,0.651,1.244,0.890,0.406,0.700,0.651,��,7.3,��
2020/06/15,16:00,0.713,1.007,0.652,1.241,0.891,0.404,0.700,0.650,��,7.0,��
2020/06/15,16:10,0.713,1.007,0.652,1.242,0.890,0.404,0.701,0.650,���쐼,5.2,��
2020/06/15,16:20,0.712,1.009,0.654,1.244,0.893,0.405,0.701,0.649,��,5.3,��
2020/06/15,16:30,0.711,1.010,0.652,1.244,0.891,0.404,0.699,0.649,���k��,3.7,��
2020/06/15,16:40,0.713,1.010,0.653,1.245,0.892,0.403,0.700,0.651,�쐼,1.5,��
2020/06/15,16:50,0.709,1.008,0.651,1.243,0.892,0.405,0.699,0.649,��쐼,1.7,��
2020/06/15,17:00,0.712,1.009,0.651,1.246,0.890,0.404,0.697,0.650,��쐼,2.0,��
2020/06/15,17:10,0.709,1.009,0.650,1.244,0.891,0.405,0.700,0.650,���쐼,3.3,��
2020/06/15,17:20,0.710,1.008,0.649,1.244,0.890,0.402,0.701,0.650,��,3.6,��
2020/06/15,17:30,0.712,1.007,0.649,1.243,0.889,0.403,0.699,0.649,���k��,3.4,��
2020/06/15,17:40,0.711,1.008,0.649,1.244,0.891,0.405,0.699,0.650,���k��,3.1,��
2020/06/15,17:50,0.709,1.008,0.649,1.244,0.890,0.402,0.697,0.649,���k��,2.3,��
2020/06/15,18:00,0.710,1.008,0.651,1.243,0.889,0.403,0.695,0.648,���k��,2.2,��
2020/06/15,18:10,0.708,1.007,0.649,1.241,0.890,0.401,0.698,0.650,�k�k��,1.2,��
2020/06/15,18:20,0.707,1.007,0.647,1.242,0.891,0.401,0.696,0.649,�쓌,0.6,��
2020/06/15,18:30,0.708,1.007,0.648,1.244,0.890,0.401,0.698,0.650,�쓌,1.7,��
2020/06/15,18:40,0.710,1.006,0.646,1.243,0.889,0.400,0.699,0.651,��쓌,2.3,��
2020/06/15,18:50,0.708,1.007,0.647,1.244,0.890,0.401,0.699,0.651,��,3.2,��
2020/06/15,19:00,0.708,1.005,0.648,1.242,0.889,0.400,0.698,0.652,��,4.6,��
2020/06/15,19:10,0.709,1.006,0.649,1.239,0.889,0.402,0.697,0.651,��쐼,3.8,��
2020/06/15,19:20,0.708,1.006,0.649,1.241,0.890,0.402,0.699,0.651,��쐼,3.7,��
2020/06/15,19:30,0.709,1.006,0.649,1.240,0.892,0.402,0.698,0.651,�쐼,2.8,��
2020/06/15,19:40,0.708,1.006,0.650,1.242,0.891,0.400,0.699,0.651,���쐼,2.2,��
2020/06/15,19:50,0.708,1.008,0.650,1.242,0.893,0.402,0.700,0.653,���k��,3.3,��
2020/06/15,20:00,0.708,1.009,0.649,1.244,0.893,0.402,0.700,0.653,�k�k��,3.9,��
2020/06/15,20:10,0.709,1.010,0.650,1.243,0.890,0.403,0.698,0.651,�k��,3.9,��
2020/06/15,20:20,0.709,1.011,0.650,1.243,0.891,0.402,0.698,0.652,�k��,4.5,��
2020/06/15,20:30,0.710,1.010,0.651,1.244,0.893,0.401,0.699,0.652,�k��,4.2,��
2020/06/15,20:40,0.709,1.011,0.650,1.246,0.892,0.403,0.698,0.651,�k��,3.7,��
2020/06/15,20:50,0.710,1.010,0.651,1.246,0.891,0.403,0.698,0.652,���k��,2.0,��
2020/06/15,21:00,0.707,1.009,0.650,1.246,0.891,0.403,0.697,0.652,��,1.7,��
2020/06/15,21:10,0.708,1.010,0.652,1.244,0.892,0.402,0.699,0.651,�k��,2.5,��
2020/06/15,21:20,0.711,1.010,0.652,1.244,0.890,0.403,0.699,0.653,�k��,3.2,�L
2020/06/15,21:30,0.710,1.010,0.649,1.244,0.893,0.405,0.700,0.652,�k��,3.6,�L
2020/06/15,21:40,0.713,1.013,0.653,1.249,0.893,0.405,0.700,0.652,���k��,4.0,�L
2020/06/15,21:50,0.712,1.009,0.655,1.248,0.892,0.405,0.699,0.652,���k��,7.3,�L
2020/06/15,22:00,0.709,1.005,0.653,1.245,0.890,0.405,0.697,0.650,���k��,5.0,�L
2020/06/15,22:10,0.710,1.003,0.655,1.245,0.888,0.406,0.696,0.651,��쐼,1.4,�L
2020/06/15,22:20,0.710,1.002,0.654,1.245,0.885,0.408,0.698,0.653,��쐼,1.7,�L
2020/06/15,22:30,0.709,1.003,0.651,1.241,0.885,0.408,0.697,0.651,�쐼,2.3,��
2020/06/15,22:40,0.706,1.000,0.650,1.242,0.881,0.406,0.697,0.650,�쐼,3.0,�L
2020/06/15,22:50,0.707,0.998,0.648,1.240,0.881,0.404,0.697,0.650,��쐼,1.4,��
2020/06/15,23:00,0.704,0.996,0.648,1.239,0.879,0.404,0.694,0.649,�쐼,2.9,��
2020/06/15,23:10,0.703,0.994,0.649,1.236,0.880,0.403,0.695,0.650,�쐼,3.6,��
2020/06/15,23:20,0.702,0.994,0.647,1.235,0.879,0.403,0.693,0.650,�쐼,1.7,��
2020/06/15,23:30,0.702,0.995,0.645,1.234,0.879,0.401,0.694,0.648,��쐼,2.0,��
2020/06/15,23:40,0.701,0.993,0.644,1.234,0.876,0.400,0.694,0.649,�쐼,3.1,��
2020/06/15,23:50,0.700,0.992,0.643,1.233,0.875,0.400,0.694,0.648,���쐼,4.2,��
